Time,TemperatureF,DewpointF,PressureIn,WindDirection,WindDirectionDegrees,WindSpeedMPH,WindSpeedGustMPH,Humidity,HourlyPrecipIn,Conditions,Clouds,dailyrainin,SoftwareType,DateUTC
2013-08-07 00:02:00,72.0,70.0,-100.00,NE,55,0.0,4.0,91,0.00,,,-99.99,,2013-08-07 05:02:00,
2013-08-07 00:11:00,72.0,70.0,-100.00,NE,35,1.0,2.0,93,0.00,,,-99.99,,2013-08-07 05:11:00,
2013-08-07 00:22:00,71.0,70.0,-100.00,East,85,1.0,4.0,94,0.00,,,-99.99,,2013-08-07 05:22:00,
2013-08-07 00:32:00,71.0,70.0,-100.00,NE,55,2.0,3.0,94,0.00,,,-99.99,,2013-08-07 05:32:00,
2013-08-07 00:43:00,71.0,70.0,-100.00,NE,55,4.0,5.0,95,0.00,,,-99.99,,2013-08-07 05:43:00,
2013-08-07 00:52:00,71.0,70.0,-100.00,NE,55,3.0,4.0,96,0.00,,,-99.99,,2013-08-07 05:52:00,
2013-08-07 01:02:00,71.0,69.0,-100.00,NE,50,1.0,4.0,96,0.00,,,-99.99,,2013-08-07 06:02:00,
2013-08-07 01:11:00,71.0,69.0,-100.00,NE,45,1.0,3.0,96,0.00,,,-99.99,,2013-08-07 06:11:00,
2013-08-07 01:22:00,70.0,69.0,-100.00,ENE,65,1.0,3.0,96,0.00,,,-99.99,,2013-08-07 06:22:00,
2013-08-07 01:32:00,70.0,69.0,-100.00,ENE,75,1.0,4.0,96,0.00,,,-99.99,,2013-08-07 06:32:00,
2013-08-07 01:43:00,70.0,69.0,-100.00,NE,55,1.0,3.0,96,0.00,,,-99.99,,2013-08-07 06:43:00,
2013-08-07 01:52:00,70.0,69.0,-100.00,NE,55,1.0,2.0,96,0.00,,,-99.99,,2013-08-07 06:52:00,
2013-08-07 02:01:00,70.0,69.0,-100.00,NE,55,3.0,5.0,96,0.00,,,-99.99,,2013-08-07 07:01:00,
2013-08-07 02:12:00,70.0,69.0,-100.00,ENE,70,4.0,6.0,96,0.00,,,-99.99,,2013-08-07 07:12:00,
2013-08-07 02:22:00,70.0,69.0,-100.00,ENE,65,2.0,6.0,96,0.00,,,-99.99,,2013-08-07 07:22:00,
2013-08-07 02:33:00,70.0,69.0,-100.00,ENE,75,2.0,6.0,95,0.00,,,-99.99,,2013-08-07 07:33:00,
2013-08-07 02:43:00,69.0,68.0,-100.00,East,90,2.0,3.0,94,0.00,,,-99.99,,2013-08-07 07:43:00,
2013-08-07 02:52:00,69.0,68.0,-100.00,ENE,75,3.0,4.0,94,0.00,,,-99.99,,2013-08-07 07:52:00,
2013-08-07 03:01:00,69.0,68.0,-100.00,East,80,4.0,6.0,94,0.00,,,-99.99,,2013-08-07 08:01:00,
2013-08-07 03:22:00,69.0,67.0,-100.00,East,85,2.0,4.0,94,0.00,,,-99.99,,2013-08-07 08:22:00,
2013-08-07 03:32:00,69.0,67.0,-100.00,East,85,2.0,4.0,94,0.00,,,-99.99,,2013-08-07 08:32:00,
2013-08-07 03:44:00,69.0,68.0,-100.00,NE,40,1.0,4.0,95,0.00,,,-99.99,,2013-08-07 08:44:00,
2013-08-07 04:02:00,68.0,67.0,-100.00,SE,125,1.0,3.0,96,0.00,,,-99.99,,2013-08-07 09:02:00,
2013-08-07 04:22:00,68.0,67.0,-100.00,North,10,1.0,1.0,97,0.00,,,-99.99,,2013-08-07 09:22:00,
2013-08-07 04:32:00,68.0,67.0,-100.00,North,10,1.0,1.0,97,0.00,,,-99.99,,2013-08-07 09:32:00,
2013-08-07 04:43:00,68.0,67.0,-100.00,North,10,0.0,1.0,97,0.00,,,-99.99,,2013-08-07 09:43:00,
2013-08-07 04:54:00,68.0,67.0,-100.00,NE,50,1.0,4.0,97,0.00,,,-99.99,,2013-08-07 09:54:00,
2013-08-07 05:11:00,68.0,67.0,-100.00,East,95,1.0,1.0,97,0.00,,,-99.99,,2013-08-07 10:11:00,
2013-08-07 05:32:00,67.0,67.0,-100.00,East,95,1.0,2.0,97,0.00,,,-99.99,,2013-08-07 10:32:00,
2013-08-07 05:43:00,67.0,66.0,-100.00,ENE,75,0.0,1.0,98,0.00,,,-99.99,,2013-08-07 10:43:00,
2013-08-07 06:32:00,68.0,67.0,-100.00,East,95,6.0,7.0,98,0.00,,,-99.99,,2013-08-07 11:32:00,
2013-08-07 06:43:00,68.0,67.0,-100.00,East,100,4.0,6.0,98,0.00,,,-99.99,,2013-08-07 11:43:00,
2013-08-07 07:02:00,68.0,67.0,-100.00,ESE,110,4.0,7.0,98,0.00,,,-99.99,,2013-08-07 12:02:00,
2013-08-07 07:11:00,68.0,67.0,-100.00,ESE,105,4.0,6.0,98,0.00,,,-99.99,,2013-08-07 12:11:00,
2013-08-07 07:22:00,68.0,68.0,-100.00,ESE,105,4.0,6.0,98,0.00,,,-99.99,,2013-08-07 12:22:00,
2013-08-07 07:32:00,68.0,68.0,-100.00,East,95,7.0,9.0,98,0.00,,,-99.99,,2013-08-07 12:32:00,
2013-08-07 07:43:00,68.0,68.0,-100.00,East,85,9.0,12.0,98,0.00,,,-99.99,,2013-08-07 12:43:00,
2013-08-07 08:11:00,70.0,68.0,-100.00,ESE,105,7.0,13.0,91,0.00,,,-99.99,,2013-08-07 13:11:00,
2013-08-07 08:32:00,70.0,66.0,-100.00,ESE,110,7.0,12.0,86,0.00,,,-99.99,,2013-08-07 13:32:00,
2013-08-07 08:44:00,71.0,66.0,-100.00,SSE,165,6.0,9.0,83,0.00,,,-99.99,,2013-08-07 13:44:00,
2013-08-07 09:12:00,73.0,65.0,-100.00,SE,140,6.0,9.0,76,0.00,,,-99.99,,2013-08-07 14:12:00,
2013-08-07 09:33:00,74.0,65.0,-100.00,SE,135,7.0,9.0,72,0.00,,,-99.99,,2013-08-07 14:33:00,
2013-08-07 09:43:00,76.0,65.0,-100.00,SE,145,6.0,9.0,68,0.00,,,-99.99,,2013-08-07 14:43:00,
2013-08-07 10:02:00,76.0,64.0,-100.00,SSE,155,7.0,12.0,67,0.00,,,-99.99,,2013-08-07 15:02:00,
2013-08-07 10:12:00,76.0,64.0,-100.00,South,185,7.0,11.0,66,0.00,,,-99.99,,2013-08-07 15:12:00,
2013-08-07 10:33:00,78.0,65.0,-100.00,SSE,155,8.0,11.0,65,0.00,,,-99.99,,2013-08-07 15:33:00,
2013-08-07 10:43:00,76.0,64.0,-100.00,SE,135,11.0,15.0,64,0.00,,,-99.99,,2013-08-07 15:43:00,
2013-08-07 10:53:00,76.0,64.0,-100.00,SE,135,11.0,15.0,64,0.00,,,-99.99,,2013-08-07 15:53:00,
2013-08-07 11:02:00,77.0,65.0,-100.00,ESE,105,11.0,15.0,66,0.00,,,-99.99,,2013-08-07 16:02:00,
2013-08-07 11:11:00,78.0,64.0,-100.00,ESE,105,11.0,15.0,61,0.00,,,-99.99,,2013-08-07 16:11:00,
2013-08-07 11:33:00,78.0,64.0,-100.00,ESE,110,11.0,14.0,61,0.00,,,-99.99,,2013-08-07 16:33:00,
2013-08-07 11:43:00,79.0,64.0,-100.00,East,100,10.0,17.0,61,0.00,,,-99.99,,2013-08-07 16:43:00,
2013-08-07 12:01:00,79.0,65.0,-100.00,East,100,11.0,14.0,62,0.00,,,-99.99,,2013-08-07 17:01:00,
2013-08-07 12:11:00,79.0,65.0,-100.00,East,100,10.0,16.0,61,0.00,,,-99.99,,2013-08-07 17:11:00,
2013-08-07 12:33:00,79.0,65.0,-100.00,East,100,8.0,17.0,61,0.00,,,-99.99,,2013-08-07 17:33:00,
2013-08-07 12:43:00,79.0,64.0,-100.00,ESE,105,11.0,14.0,60,0.00,,,-99.99,,2013-08-07 17:43:00,
2013-08-07 13:02:00,79.0,64.0,-100.00,ESE,110,10.0,18.0,59,0.00,,,-99.99,,2013-08-07 18:02:00,
2013-08-07 13:11:00,79.0,63.0,-100.00,East,100,11.0,20.0,58,0.00,,,-99.99,,2013-08-07 18:11:00,
2013-08-07 13:22:00,80.0,64.0,-100.00,East,100,11.0,19.0,58,0.00,,,-99.99,,2013-08-07 18:22:00,
2013-08-07 13:32:00,80.0,64.0,-100.00,East,100,11.0,19.0,58,0.00,,,-99.99,,2013-08-07 18:32:00,
2013-08-07 13:43:00,78.0,63.0,-100.00,ESE,105,14.0,19.0,59,0.00,,,-99.99,,2013-08-07 18:43:00,
2013-08-07 13:52:00,78.0,63.0,-100.00,ESE,105,14.0,19.0,59,0.00,,,-99.99,,2013-08-07 18:52:00,
2013-08-07 14:01:00,80.0,64.0,-100.00,ESE,110,12.0,19.0,58,0.00,,,-99.99,,2013-08-07 19:01:00,
2013-08-07 14:11:00,80.0,64.0,-100.00,East,100,11.0,19.0,57,0.00,,,-99.99,,2013-08-07 19:11:00,
2013-08-07 14:32:00,79.0,63.0,-100.00,ESE,105,15.0,19.0,57,0.00,,,-99.99,,2013-08-07 19:32:00,
2013-08-07 14:44:00,81.0,63.0,-100.00,East,100,9.0,17.0,55,0.00,,,-99.99,,2013-08-07 19:44:00,
2013-08-07 14:52:00,81.0,63.0,-100.00,East,90,11.0,17.0,54,0.00,,,-99.99,,2013-08-07 19:52:00,
2013-08-07 15:02:00,81.0,63.0,-100.00,East,90,11.0,17.0,54,0.00,,,-99.99,,2013-08-07 20:02:00,
2013-08-07 15:22:00,81.0,62.0,-100.00,North,0,11.0,17.0,53,0.00,,,-99.99,,2013-08-07 20:22:00,
2013-08-07 15:32:00,81.0,62.0,-100.00,North,0,11.0,17.0,53,0.00,,,-99.99,,2013-08-07 20:32:00,
2013-08-07 15:43:00,82.0,62.0,-100.00,ESE,110,9.0,18.0,50,0.00,,,-99.99,,2013-08-07 20:43:00,
2013-08-07 15:52:00,82.0,62.0,-100.00,ESE,110,9.0,18.0,50,0.00,,,-99.99,,2013-08-07 20:52:00,
2013-08-07 16:01:00,83.0,62.0,-100.00,ESE,110,9.0,16.0,48,0.00,,,-99.99,,2013-08-07 21:01:00,
2013-08-07 16:11:00,82.0,62.0,-100.00,ESE,110,12.0,15.0,50,0.00,,,-99.99,,2013-08-07 21:11:00,
2013-08-07 16:22:00,82.0,61.0,-100.00,ESE,110,12.0,17.0,48,0.00,,,-99.99,,2013-08-07 21:22:00,
2013-08-07 16:32:00,82.0,61.0,-100.00,East,95,12.0,17.0,50,0.00,,,-99.99,,2013-08-07 21:32:00,
2013-08-07 16:43:00,82.0,61.0,-100.00,East,100,11.0,17.0,48,0.00,,,-99.99,,2013-08-07 21:43:00,
2013-08-07 16:52:00,83.0,61.0,-100.00,North,0,10.0,16.0,48,0.00,,,-99.99,,2013-08-07 21:52:00,
2013-08-07 17:01:00,83.0,61.0,-100.00,North,0,10.0,16.0,48,0.00,,,-99.99,,2013-08-07 22:01:00,
2013-08-07 17:12:00,83.0,62.0,-100.00,SE,125,7.0,14.0,48,0.00,,,-99.99,,2013-08-07 22:12:00,
2013-08-07 17:22:00,83.0,62.0,-100.00,ESE,115,9.0,14.0,48,0.00,,,-99.99,,2013-08-07 22:22:00,
2013-08-07 17:32:00,83.0,62.0,-100.00,ESE,115,9.0,14.0,48,0.00,,,-99.99,,2013-08-07 22:32:00,
2013-08-07 17:43:00,83.0,62.0,-100.00,ESE,110,11.0,14.0,48,0.00,,,-99.99,,2013-08-07 22:43:00,
2013-08-07 17:52:00,83.0,62.0,-100.00,ESE,110,11.0,14.0,48,0.00,,,-99.99,,2013-08-07 22:52:00,
2013-08-07 18:01:00,82.0,62.0,-100.00,ESE,110,7.0,14.0,49,0.00,,,-99.99,,2013-08-07 23:01:00,
2013-08-07 18:11:00,83.0,62.0,-100.00,ESE,110,9.0,14.0,49,0.00,,,-99.99,,2013-08-07 23:11:00,
2013-08-07 18:32:00,81.0,61.0,-100.00,North,5,7.0,12.0,49,0.00,,,-99.99,,2013-08-07 23:32:00,
2013-08-07 18:43:00,81.0,61.0,-100.00,North,10,6.0,12.0,50,0.00,,,-99.99,,2013-08-07 23:43:00,
2013-08-07 18:52:00,81.0,62.0,-100.00,North,5,6.0,12.0,51,0.00,,,-99.99,,2013-08-07 23:52:00,
2013-08-07 19:01:00,81.0,61.0,-100.00,North,5,8.0,12.0,51,0.00,,,-99.99,,2013-08-08 00:01:00,
2013-08-07 19:32:00,80.0,60.0,-100.00,North,5,6.0,11.0,52,0.00,,,-99.99,,2013-08-08 00:32:00,
2013-08-07 19:42:00,80.0,61.0,-100.00,North,0,6.0,9.0,52,0.00,,,-99.99,,2013-08-08 00:42:00,
2013-08-07 19:52:00,79.0,61.0,-100.00,ESE,110,6.0,9.0,53,0.00,,,-99.99,,2013-08-08 00:52:00,
2013-08-07 20:11:00,76.0,61.0,-100.00,North,5,3.0,6.0,59,0.00,,,-99.99,,2013-08-08 01:11:00,
2013-08-07 20:32:00,74.0,62.0,-100.00,North,10,4.0,5.0,65,0.00,,,-99.99,,2013-08-08 01:32:00,
2013-08-07 20:43:00,73.0,62.0,-100.00,North,10,3.0,5.0,69,0.00,,,-99.99,,2013-08-08 01:43:00,
2013-08-07 20:52:00,72.0,63.0,-100.00,North,10,4.0,5.0,73,0.00,,,-99.99,,2013-08-08 01:52:00,
2013-08-07 21:02:00,71.0,63.0,-100.00,North,10,4.0,6.0,75,0.00,,,-99.99,,2013-08-08 02:02:00,
2013-08-07 21:11:00,70.0,63.0,-100.00,North,10,4.0,5.0,78,0.00,,,-99.99,,2013-08-08 02:11:00,
2013-08-07 21:22:00,70.0,63.0,-100.00,NNE,15,4.0,6.0,79,0.00,,,-99.99,,2013-08-08 02:22:00,
2013-08-07 21:32:00,70.0,63.0,-100.00,NNE,15,4.0,6.0,79,0.00,,,-99.99,,2013-08-08 02:32:00,
2013-08-07 21:42:00,70.0,63.0,-100.00,NNE,25,4.0,6.0,79,0.00,,,-99.99,,2013-08-08 02:42:00,
2013-08-07 21:52:00,70.0,63.0,-100.00,NNE,20,4.0,6.0,79,0.00,,,-99.99,,2013-08-08 02:52:00,
2013-08-07 22:12:00,69.0,63.0,-100.00,North,10,3.0,6.0,81,0.00,,,-99.99,,2013-08-08 03:12:00,
2013-08-07 22:22:00,69.0,63.0,-100.00,North,5,2.0,4.0,82,0.00,,,-99.99,,2013-08-08 03:22:00,
2013-08-07 22:32:00,69.0,63.0,-100.00,North,10,3.0,3.0,83,0.00,,,-99.99,,2013-08-08 03:32:00,
2013-08-07 22:43:00,68.0,63.0,-100.00,North,0,2.0,2.0,84,0.00,,,-99.99,,2013-08-08 03:43:00,
2013-08-07 22:52:00,68.0,63.0,-100.00,North,5,3.0,3.0,86,0.00,,,-99.99,,2013-08-08 03:52:00,
2013-08-07 23:33:00,67.0,63.0,-100.00,North,10,2.0,2.0,89,0.00,,,-99.99,,2013-08-08 04:33:00,